[[{"header":{"parameterUnit":"m.s-1","parameterCategory":1,"la1":30.2992,"la2":30.254,"lo1":-89.0895,"lo2":-89.0443,"dy":0.0025,"dx":0.0025,"nx":19,"ny":19,"refTime":"2026-05-16T09:00:00:Z","depth":0,"parameterNumber":2,"parameterNumberName":"U-component_of_WINDS"},"data":[0,0,0,-1.7147,-1.7145,-1.7047,-1.7046,-1.6937,-1.6936,0,0,0,0,0,0,0,0,0,0,0,-1.7186,-1.7186,-1.7147,-1.7145,-1.7047,-1.7046,-1.6937,-1.6936,0,0,0,0,0,0,0,0,0,0,0,-1.7187,-1.7186,-1.7186,-1.7144,-1.7047,-1.7046,-1.6937,-1.7005,0,0,0,0,0,0,0,0,0,0,-1.7098,-1.7145,-1.7186,-1.7186,-1.7144,-1.7047,-1.7046,-1.7008,-1.7001,-1.6989,0,-1.6981,0,-1.6957,-1.693,-1.6929,0,0,0,-1.7136,-1.7151,-1.7115,-1.7186,-1.7143,-1.7047,-1.7088,-1.7004,-1.6996,-1.6979,-1.698,-1.6975,-1.6955,-1.6929,-1.6929,-1.689,-1.689,0,0,-1.7142,-1.7174,-1.7121,-1.7111,-1.7128,-1.7092,-1.7086,-1.6999,-1.7001,-1.6979,-1.6972,-1.6954,-1.6929,-1.6928,-1.6889,-1.689,0,0,0,-1.7163,-1.7178,-1.7144,-1.7116,-1.7097,-1.7089,-1.7082,-1.7005,-1.6991,-1.6971,-1.6952,-1.6928,-1.6927,-1.6889,-1.6889,-1.6932,0,0,0,-1.7166,-1.7191,-1.7147,-1.7166,-1.7099,-1.705,-1.709,-1.6997,-1.6986,-1.6953,-1.6928,-1.6926,-1.6889,-1.6889,-1.693,-1.6946,0,0,0,-1.7189,-1.7193,-1.7183,-1.7168,-1.7127,-1.705,-1.7031,-1.6994,-1.6975,-1.6929,-1.6926,-1.6889,-1.6889,-1.6929,-1.6944,-1.6946,0,0,0,-1.7223,-1.7221,-1.7184,-1.7175,-1.7128,-1.7078,-1.7031,-1.6992,-1.6958,-1.6928,-1.6889,-1.6889,-1.6928,-1.6942,-1.6944,-1.6953,-1.696,0,0,-1.7239,-1.7224,-1.7216,-1.718,-1.7146,-1.7091,-1.7061,-1.6998,-1.6963,-1.6916,-1.6915,-1.6931,-1.6943,-1.6945,-1.6989,-1.6995,0,0,0,-1.7232,-1.7227,-1.721,-1.718,-1.7134,-1.7095,-1.7033,-1.701,-1.6969,-1.6946,-1.6932,-1.6938,-1.6938,-1.694,-1.6945,-1.6943,-1.6892,-1.6892,-1.6892,-1.7299,-1.7257,-1.7241,-1.7187,-1.7159,-1.7096,-1.7069,-1.7027,-1.6991,-1.6989,-1.6974,-1.7005,-1.701,-1.7013,-1.7011,-1.6975,-1.6976,-1.6976,-1.6976,-1.7318,-1.7303,-1.7258,-1.7226,-1.7181,-1.7153,-1.7094,-1.707,-1.7037,-1.7012,-1.701,-1.6987,-1.7021,-1.7017,-1.6979,-1.6978,-1.6978,-1.6977,-1.6977,-1.7357,-1.7342,-1.7316,-1.7269,-1.7238,-1.7183,-1.7155,-1.7115,-1.7076,-1.7074,-1.7054,-1.7053,-1.7047,-1.7068,-1.7068,-1.7068,-1.7068,-1.7068,-1.7068,-1.7407,-1.7376,-1.7357,-1.7309,-1.7286,-1.7249,-1.7188,-1.7163,-1.7125,-1.7098,-1.7098,-1.7062,-1.7033,-1.7026,-1.707,-1.7069,-1.7069,-1.7069,-1.7069,-1.744,-1.7427,-1.7398,-1.7375,-1.7316,-1.7288,-1.7238,-1.7191,-1.7165,-1.7152,-1.7117,-1.7103,-1.7084,-1.708,-1.7074,-1.7127,-1.7127,-1.7127,-1.7127,-1.7472,-1.746,-1.7422,-1.7388,-1.7349,-1.7301,-1.727,-1.7224,-1.7173,-1.7154,-1.7141,-1.713,-1.7127,-1.711,-1.7105,-1.7099,-1.7157,-1.7157,-1.7157,-1.749,-1.7473,-1.7454,-1.7406,-1.7357,-1.7316,-1.7286,-1.7247,-1.7187,-1.7158,-1.7138,-1.7137,-1.7119,-1.7115,-1.7084,-1.7077,-1.7064,0,0]},{"header":{"parameterUnit":"m.s-1","parameterCategory":1,"la1":30.2992,"la2":30.254,"lo1":-89.0895,"lo2":-89.0443,"dy":0.0025,"dx":0.0025,"nx":19,"ny":19,"refTime":"2026-05-16T09:00:00:Z","depth":0,"parameterNumber":3,"parameterNumberName":"V-component_of_WINDS"},"data":[0,0,0,3.7166,3.7165,3.7113,3.7112,3.7043,3.7043,0,0,0,0,0,0,0,0,0,0,0,3.7182,3.7182,3.7166,3.7165,3.7113,3.7112,3.7043,3.7043,0,0,0,0,0,0,0,0,0,0,0,3.7182,3.7182,3.7181,3.7164,3.7113,3.7112,3.7043,3.7083,0,0,0,0,0,0,0,0,0,0,3.7134,3.715,3.7182,3.7181,3.7164,3.7113,3.7112,3.7085,3.708,3.7066,0,3.7056,0,3.7049,3.7038,3.7038,0,0,0,3.7163,3.7154,3.7139,3.7181,3.7164,3.7113,3.7136,3.7082,3.7077,3.7061,3.7055,3.7053,3.7047,3.7038,3.7037,3.6967,3.6967,0,0,3.7166,3.7172,3.7143,3.7136,3.7147,3.7137,3.7134,3.7079,3.7073,3.7055,3.7051,3.7046,3.7037,3.7037,3.6968,3.6967,0,0,0,3.7175,3.7174,3.7161,3.7139,3.713,3.7136,3.7132,3.7075,3.7071,3.705,3.7046,3.7037,3.7036,3.6968,3.6968,3.6963,0,0,0,3.7177,3.718,3.7163,3.7166,3.7131,3.7103,3.7129,3.7075,3.7068,3.7046,3.7037,3.7035,3.6968,3.6968,3.6963,3.6959,0,0,0,3.7185,3.7181,3.7174,3.7166,3.7145,3.7103,3.7096,3.7073,3.7065,3.7038,3.7035,3.6968,3.6968,3.6964,3.696,3.6943,0,0,0,3.7195,3.7168,3.7174,3.7142,3.7145,3.7102,3.7096,3.7062,3.7038,3.7036,3.6968,3.6968,3.6964,3.696,3.6944,3.693,3.6925,0,0,3.7165,3.7165,3.7146,3.7149,3.7107,3.7109,3.7065,3.7035,3.7024,3.6986,3.6985,3.6963,3.696,3.6943,3.6895,3.6892,0,0,0,3.7138,3.7125,3.7112,3.7091,3.7069,3.705,3.7027,3.7016,3.6984,3.7007,3.6952,3.695,3.694,3.6933,3.693,3.692,3.6965,3.6965,3.6965,3.7104,3.7095,3.7063,3.7048,3.7027,3.7005,3.6986,3.6967,3.6962,3.6949,3.6938,3.6911,3.6903,3.69,3.6891,3.693,3.693,3.693,3.693,3.7059,3.7038,3.7035,3.7003,3.6993,3.6965,3.6941,3.6939,3.691,3.6918,3.6909,3.6918,3.6897,3.6888,3.6929,3.693,3.693,3.693,3.693,3.7035,3.7024,3.7013,3.6983,3.6959,3.6944,3.6918,3.6909,3.69,3.6891,3.6878,3.6878,3.6877,3.6885,3.6885,3.6885,3.6885,3.6885,3.6885,3.7015,3.7003,3.6983,3.696,3.6946,3.6926,3.6903,3.6888,3.6869,3.6864,3.6864,3.686,3.6897,3.6906,3.6883,3.6884,3.6884,3.6884,3.6884,3.6973,3.6982,3.6951,3.6937,3.6909,3.6887,3.6877,3.6847,3.6833,3.682,3.6818,3.6847,3.6845,3.6848,3.6855,3.6821,3.6821,3.6821,3.6821,3.6953,3.6953,3.692,3.6899,3.6876,3.6865,3.6828,3.6811,3.6793,3.6783,3.6787,3.6797,3.68,3.6796,3.68,3.6807,3.6761,3.676,3.676,3.6927,3.6924,3.6896,3.6882,3.686,3.684,3.6806,3.6779,3.6761,3.6758,3.6776,3.6778,3.6794,3.6799,3.6796,3.6802,3.6815,0,0]}]]